Christchurch Automated, New Zealand

11:04 AM NZST on July 29, 2016 (GMT +1200)
Christchurch International

Weather History for NZCH - November, 2012

Change the Weather History Date:

Friday, November 23, 2012

  Actual Average Record
Temperature  
Mean Temperature 57 °F -  
Max Temperature 64 °F 63 °F 78 °F (2006)
Min Temperature 50 °F 44 °F 33 °F (2000)
Degree Days  
Heating Degree Days 8    
Growing Degree Days 7 (Base 50)    
Moisture  
Dew Point 49 °F    
Average Humidity 76    
Maximum Humidity 94    
Minimum Humidity 49    
Precipitation  
Precipitation 0.00 in - - ()
Sea Level Pressure  
Sea Level Pressure 29.76 in    
Wind  
Wind Speed 10 mph ()    
Max Wind Speed 20 mph    
Max Gust Speed -    
Visibility 6.2 miles    
Events      
Averages and records for this station are not official NWS values.
T = Trace of Precipitation, MM = Missing Value Source: Averaged Metar Reports

Daily Weather History Graph

Daily Weather History Graph

Search for Another Location

Airport or City:

Trip Planner

Search our weather history database for the weather conditions in past years. The results will help you decide how hot, cold, wet, or windy it might be!

Date:

Astronomy

Nov. 23, 2012 Rise Set
Actual Time 5:48 AM NZDT 8:44 PM NZDT
Civil Twilight 5:14 AM NZDT 9:18 PM NZDT
Nautical Twilight 4:31 AM NZDT 10:01 PM NZDT
Astronomical Twilight 3:41 AM NZDT 10:52 PM NZDT
Moon 3:33 PM NZDT (11/23) 2:45 AM NZDT (11/23)
Length of Visible Light 16h 03m
Length of Day
14h 55m
Waxing Gibbous, 73% of the Moon is Illuminated
Nov 23
Waxing Gibbous
Nov 29
Full
Dec 7
Last Quarter
Dec 13
New
Dec 20
First Quarter

Hourly Weather History & Observations

Time (NZDT) Temp. Dew Point Humidity Pressure Visibility Wind Dir Wind Speed Gust Speed Precip Events Conditions
12:00 AM 55.4 °F 51.8 °F 88% 29.77 in 6.2 mi ENE 16.1 mph - N/A   Mostly Cloudy
1:00 AM 55.4 °F 51.8 °F 88% 29.74 in 6.2 mi ENE 15.0 mph - N/A   Mostly Cloudy
2:00 AM 55.4 °F 51.8 °F 88% 29.71 in 6.2 mi ENE 12.7 mph - N/A   Mostly Cloudy
3:00 AM 55.4 °F 51.8 °F 88% 29.71 in 6.2 mi ENE 11.5 mph - N/A   Mostly Cloudy
4:00 AM 53.6 °F 51.8 °F 94% 29.68 in 6.2 mi ENE 10.4 mph - N/A   Mostly Cloudy
5:00 AM 51.8 °F 50.0 °F 94% 29.71 in 6.2 mi East 4.6 mph - N/A   Mostly Cloudy
5:25 AM 51.8 °F 50.0 °F 94% 29.71 in 6.2 mi East 3.5 mph - N/A   Partly Cloudy
6:00 AM 50.0 °F 48.2 °F 94% 29.71 in 6.2 mi NNE 5.8 mph - N/A   Partly Cloudy
7:00 AM 50.0 °F 48.2 °F 94% 29.71 in - NW 2.3 mph - N/A   Clear
8:00 AM 53.6 °F 51.8 °F 94% 29.74 in 6.2 mi WSW 3.5 mph - N/A   Partly Cloudy
9:00 AM 60.8 °F 50.0 °F 68% 29.77 in 6.2 mi SW 13.8 mph - N/A   Partly Cloudy
10:00 AM 60.8 °F 51.8 °F 72% 29.77 in 6.2 mi SSW 18.4 mph - N/A   Scattered Clouds
11:00 AM 60.8 °F 53.6 °F 77% 29.80 in 6.2 mi SW 13.8 mph - N/A   Scattered Clouds
12:00 PM 62.6 °F 50.0 °F 63% 29.80 in 6.2 mi South 19.6 mph - N/A   Scattered Clouds
1:00 PM 62.6 °F 51.8 °F 68% 29.80 in 6.2 mi SSW 18.4 mph - N/A   Mostly Cloudy
2:00 PM 60.8 °F 48.2 °F 63% 29.80 in 6.2 mi South 16.1 mph - N/A   Partly Cloudy
3:00 PM 62.6 °F 48.2 °F 59% 29.80 in 6.2 mi South 10.4 mph - N/A   Partly Cloudy
4:00 PM 64.4 °F 44.6 °F 49% 29.80 in 6.2 mi South 9.2 mph - N/A   Partly Cloudy
5:00 PM 64.4 °F 46.4 °F 52% 29.77 in 6.2 mi South 8.1 mph - N/A   Partly Cloudy
6:00 PM 64.4 °F 46.4 °F 52% 29.77 in 6.2 mi South 6.9 mph - N/A   Partly Cloudy
7:00 PM 60.8 °F 48.2 °F 63% 29.77 in 6.2 mi NE 10.4 mph - N/A   Partly Cloudy
8:00 PM 57.2 °F 46.4 °F 67% 29.80 in 6.2 mi NE 11.5 mph - N/A   Partly Cloudy
9:00 PM 55.4 °F 48.2 °F 77% 29.80 in 6.2 mi NE 10.4 mph - N/A   Partly Cloudy
10:00 PM 55.4 °F 48.2 °F 77% 29.83 in 6.2 mi ENE 9.2 mph - N/A   Partly Cloudy
11:00 PM 55.4 °F 48.2 °F 77% 29.83 in - East 8.1 mph - N/A   Clear